Torna al catalogo

STARLINK-30500

AttivoComunicazioniVLEO
NORAD 58076·PAYLOAD·🇺🇸 United States

Lanciato Oct 18, 2023 da Cape Canaveral Space Force Station

Loading…

Prossimi Passaggi (prossime 24 ore)

TLE

AggiornatoSource: CelesTrak SupGP

Epoca: Sep 15, 2026, 03:00 UTC

1 58076C 23160B   26258.12548611  .00000695  00000+0  25164-4 0  2588
2 58076  43.0006  88.0520 0001164 272.8962 227.3914 15.27583422    10

Traccia STARLINK-30500 in tempo reale con AllMySat

Download on the App Store